Regional Weather Roundup
Issued by NWS

Home | Current Version | Previous Version | Text Only | Print | Product List | Glossary Off
Versions: 1 2 3 4 5 6 7 8 9 10 11 12 13 14 15 16 17 18 19 20 21 22 23 24 25 26 27

000
ASUS45 KTFX 281910
RWRMT
MONTANA REGIONAL WEATHER ROUNDUP
NATIONAL WEATHER SERVICE GREAT FALLS MT
100 PM MDT THU JUL 28 2016

NOTE: "FAIR" INDICATES FEW OR NO CLOUDS BELOW 12000 FEET WITH NO
SIGNIFICANT WEATHER AND/OR OBSTRUCTIONS TO VISIBILITY.

MTZ001>007-043-282000-
WEST OF THE DIVIDE

CITY           SKY/WX    TMP DP  RH WIND       PRES   REMARKS
KALISPELL      SUNNY     78  53  41 VRB5      30.14F
MISSOULA       SUNNY     84  50  30 VRB3      30.14F
BUTTE          SUNNY     78  38  23 NW8       30.25F
MULLAN PASS    MOSUNNY   74  45  35 CALM      30.31S
ANACONDA         N/A     77  48  36 N9        30.21F
EUREKA           N/A     77  54  44 N5        30.15F
HAMILTON         N/A     79  52  38 CALM      30.16F
LIBBY            N/A     82  52  34 CALM      30.12F
PLAINS           N/A     87  53  31 CALM      30.10F
RONAN            N/A     80  54  40 W5        30.19F
$$

MTZ008-052>055-282000-
SOUTHWEST MONTANA

CITY           SKY/WX    TMP DP  RH WIND       PRES   REMARKS
BOZEMAN        SUNNY     80  50  34 VRB3      30.20F
DILLON         SUNNY     77  52  41 N5        30.22F
W YELLOWSTONE  SUNNY     77  32  19 N5        30.30F
ENNIS          SUNNY     81  41  24 NE10      30.27F
THREE FORKS      N/A     80   6   6 NE2       30.16F
TWIN BRIDGES     N/A     78  50  37 S6        30.18F
$$

MTZ009-010-012-014-046-048-049-054-282000-
EAST SLOPES AND CENTRAL MONTANA

CITY           SKY/WX    TMP DP  RH WIND       PRES   REMARKS
CUT BANK       MOSUNNY   76  52  43 SW5       30.18F
GREAT FALLS    SUNNY     77  47  34 CALM      30.18F
HELENA         SUNNY     83  52  34 VRB6      30.15F
CHOTEAU          N/A     79  46  31 VRB3G15   30.20F
CONRAD           N/A     80  55  42 E1        30.19F
$$

MTZ011-013-016-021-045-047-050-051-282000-
NORTH CENTRAL MONTANA

CITY           SKY/WX    TMP DP  RH WIND       PRES   REMARKS
HAVRE          SUNNY     80  53  39 VRB3      30.16F
N BAR RANCH      N/A     73  50  43 VRB7G16   30.25F
CHINOOK          N/A     75  55  50 NE5       30.17S
$$

MTZ017>020-022>027-061-062-282000-
NORTHEAST MONTANA

CITY           SKY/WX    TMP DP  RH WIND       PRES   REMARKS
GLASGOW        PTSUNNY   72  57  59 CALM      30.17S
JORDAN           N/A     71  58  63 CALM      30.19F
SIDNEY         MOSUNNY   73  57  57 E8        30.15F
WOLF POINT     MOSUNNY   77  55  46 E8        30.16F
PLENTYWOOD       N/A     73  54  49 E5        30.17F
SCOBEY           N/A     73  49  42 CALM      30.16F
$$

MTZ028>42-056>058-282000-
SOUTHCENTRAL AND SOUTHEAST MONTANA

CITY           SKY/WX    TMP DP  RH WIND       PRES   REMARKS
BAKER          MOSUNNY   72  61  68 E9        30.15F
BILLINGS       MOSUNNY   75  55  49 NE10      30.20S
LIVINGSTON     SUNNY     78  45  30 CALM      30.20F
MILES CITY     MOSUNNY   72  59  63 NE7       30.16F
EKALAKA          N/A     70  56  61 NW9       30.14S
FORSYTH          N/A     72  57  60 NW6       30.16F
LAUREL           N/A     75  56  51 NE2       30.17F
ROUNDUP          N/A     74  52  46 CALM      30.10S
$$

REGIONAL REPORTS...DAKOTAS

CITY           SKY/WX    TMP DP  RH WIND       PRES   REMARKS
WILLISTON      PTSUNNY   74  53  48 VRB6      30.16F
MINOT          PTSUNNY   77  53  43 NE9       30.16S
DICKINSON      CLOUDY    62  59  90 E9        30.16S
BEACH          CLOUDY    68  61  77 NE8       30.19S
WATFORD CITY     N/A    N/A N/A N/A MISG        N/A
BISMARCK       CLOUDY    71  56  58 NE6       30.15S
GRAND FORKS    MOSUNNY   76  58  53 NE7       30.12R
FARGO          MOSUNNY   78  62  57 N7        30.08S
BUFFALO SD       N/A     75  60  59 NE5       30.07F
RAPID CITY     CLOUDY    69  57  65 NW9       30.15R
$$

REGIONAL REPORTS...WYOMING/IDAHO/WASHINGTON

CITY           SKY/WX    TMP DP  RH WIND       PRES   REMARKS
GILLETTE       MOSUNNY   72  57  59 N13       30.21F
SHERIDAN       MOSUNNY   77  53  43 N6        30.20F
BUFFALO WY     MOSUNNY   72  52  49 NE8       30.26S
CODY           SUNNY     73  48  40 N8        30.24F
YELLOWSTONE LA   N/A     69  40  34 VRB6      30.39F
IDAHO FALLS    SUNNY     85  42  22 VRB3      30.17F
SALMON         SUNNY     82  46  28 NW3       30.12F
BOISE          SUNNY     90  47  22 NW9       30.07F
SPOKANE        MOSUNNY   88  49  25 VRB7      30.10S
$$

REGIONAL REPORTS...ALBERTA

CITY           SKY/WX    TMP DP  RH WIND       PRES   REMARKS
EDMONTON       MOSUNNY   75  59  57 SW6       30.11F
CALGARY        PTSUNNY   73  57  56 S3        30.16F
LETHBRIDGE     MOSUNNY   73  59  60 VRB2      30.15F
MEDICINE HAT   MOSUNNY   88  52  29 S5        30.12F
WATERTON GATE    N/A     77  54  44 NE6         N/A
CARDSTON         N/A     77  52  41 S3          N/A
MILK RIVER       N/A     77  54  44 E3          N/A
ONEFOUR          N/A     79  48  34 SE6         N/A
$$

REGIONAL REPORTS...SASKATCHEWAN

CITY           SKY/WX    TMP DP  RH WIND       PRES   REMARKS
SWIFT CURRENT  SUNNY     75  52  43 SE7       30.16F
REGINA         MOSUNNY   73  55  53 S3        30.16F
SASKATOON      PTSUNNY   79  54  41 SW9G18    30.13F
CYPRESS HILLS    N/A     72  46  40 S7          N/A
VAL MARIE        N/A     75  48  38 SW2         N/A
ROCKGLEN         N/A     73  55  53 S9          N/A
ASSINIBOIA       N/A     68  59  73 S5          N/A
$$




USA.gov is the U.S. government's official web portal to all federal, state and local government web resources and services.